| time (UTC) | temp F | wind direction | speed knots | gust knots | rain 1hr in | rain 24hr in | rain mn in | humidity % | barometer mb |
| 20260508143111 | 57 | 223 | 2.6 | 4.3 | 0.00 | 0.00 | 0.00 | 77 | 1007.4 |
| 20260508142827 | 56 | 244 | 1.7 | 4.3 | 0.00 | 0.00 | 0.00 | 78 | 1007.4 |
| 20260508142319 | 56 | 198 | 1.7 | 5.2 | 0.00 | 0.00 | 0.00 | 79 | 1007.4 |
| 20260508141547 | 56 | 196 | 1.7 | 5.2 | 0.00 | 0.00 | 0.00 | 80 | 1007.6 |
| 20260508141312 | 55 | 144 | 2.6 | 6.1 | 0.00 | 0.00 | 0.00 | 82 | 1007.6 |
| 20260508140805 | 55 | 206 | 2.6 | 6.1 | 0.00 | 0.00 | 0.00 | 81 | 1007.6 |
| 20260508140033 | 55 | 232 | 1.7 | 4.3 | 0.00 | 0.00 | 0.00 | 83 | 1007.6 |
| 20260508135527 | 55 | 167 | 1.7 | 6.1 | 0.00 | 0.00 | 0.00 | 84 | 1007.6 |
| 20260508135022 | 54 | 226 | 1.7 | 6.1 | 0.00 | 0.00 | 0.00 | 85 | 1007.6 |
| 20260508134516 | 53 | 225 | 2.6 | 6.1 | 0.00 | 0.00 | 0.00 | 85 | 1007.6 |
| 20260508134006 | 53 | 188 | 2.6 | 7.0 | 0.00 | 0.00 | 0.00 | 85 | 1007.6 |
| 20260508133504 | 53 | 200 | 2.6 | 7.0 | 0.00 | 0.00 | 0.00 | 85 | 1007.6 |
| 20260508132958 | 53 | 232 | 1.7 | 4.3 | 0.00 | 0.00 | 0.00 | 85 | 1007.5 |
| 20260508132450 | 53 | 227 | 1.7 | 4.3 | 0.00 | 0.00 | 0.00 | 86 | 1007.5 |
| 20260508131945 | 52 | 148 | 1.7 | 2.6 | 0.00 | 0.00 | 0.00 | 86 | 1007.6 |
| 20260508131435 | 52 | 123 | 1.7 | 3.5 | 0.00 | 0.00 | 0.00 | 87 | 1007.6 |
| 20260508130934 | 51 | 130 | 1.7 | 3.5 | 0.00 | 0.00 | 0.00 | 87 | 1007.6 |
| 20260508130656 | 51 | 162 | 0.9 | 3.5 | 0.00 | 0.00 | 0.00 | 87 | 1007.6 |
| 20260508125933 | 51 | 162 | 0.9 | 3.5 | 0.00 | 0.00 | 0.00 | 88 | 1007.6 |
| 20260508125432 | 50 | 107 | 0.9 | 2.6 | 0.00 | 0.00 | 0.00 | 88 | 1007.6 |
| 20260508124931 | 50 | 154 | 0.9 | 2.6 | 0.00 | 0.00 | 0.00 | 87 | 1007.6 |
| 20260508124429 | 50 | 128 | 0.9 | 2.6 | 0.00 | 0.00 | 0.00 | 87 | 1007.6 |
| 20260508123929 | 49 | 120 | 0.9 | 2.6 | 0.00 | 0.00 | 0.00 | 88 | 1007.6 |
| 20260508123429 | 49 | 173 | 0.0 | 2.6 | 0.00 | 0.00 | 0.00 | 88 | 1007.5 |
| 20260508122929 | 49 | 157 | 0.9 | 3.5 | 0.00 | 0.00 | 0.00 | 87 | 1007.5 |
| 20260508122430 | 49 | 149 | 1.7 | 3.5 | 0.00 | 0.00 | 0.00 | 87 | 1007.5 |
| 20260508121926 | 49 | 145 | 0.9 | 3.5 | 0.00 | 0.00 | 0.00 | 87 | 1007.6 |
| 20260508121427 | 49 | 147 | 0.9 | 5.2 | 0.00 | 0.00 | 0.00 | 87 | 1007.6 |
| 20260508120927 | 49 | 182 | 1.7 | 6.1 | 0.00 | 0.00 | 0.00 | 87 | 1007.6 |
| 20260508120424 | 49 | 214 | 1.7 | 6.1 | 0.00 | 0.00 | 0.00 | 87 | 1007.4 |
| 20260508115928 | 48 | 200 | 1.7 | 5.2 | 0.00 | 0.00 | 0.00 | 87 | 1007.4 |
| 20260508115648 | 48 | 216 | 1.7 | 4.3 | 0.00 | 0.00 | 0.00 | 87 | 1007.4 |
| 20260508114922 | 48 | 174 | 1.7 | 4.3 | 0.00 | 0.00 | 0.00 | 87 | 1007.5 |
| 20260508114409 | 48 | 200 | 0.9 | 3.5 | 0.00 | 0.00 | 0.00 | 87 | 1007.5 |
| 20260508113857 | 48 | 204 | 0.0 | 2.6 | 0.00 | 0.00 | 0.00 | 87 | 1007.5 |
| 20260508113345 | 48 | 173 | 0.9 | 2.6 | 0.00 | 0.00 | 0.00 | 86 | 1007.2 |
| 20260508112835 | 48 | 173 | 0.9 | 2.6 | 0.00 | 0.00 | 0.00 | 87 | 1007.2 |
| 20260508112321 | 48 | 173 | 0.9 | 2.6 | 0.00 | 0.00 | 0.00 | 86 | 1007.2 |
| 20260508111809 | 48 | 185 | 0.9 | 2.6 | 0.00 | 0.00 | 0.00 | 86 | 1007.1 |
| 20260508111258 | 48 | 204 | 0.0 | 1.7 | 0.00 | 0.00 | 0.00 | 86 | 1007.1 |
| 20260508110745 | 48 | 204 | 0.0 | 1.7 | 0.00 | 0.00 | 0.00 | 85 | 1007.1 |
| 20260508110511 | 48 | 204 | 0.0 | 0.0 | 0.00 | 0.00 | 0.00 | 85 | 1007.2 |
| 20260508105738 | 48 | 204 | 0.0 | 1.7 | 0.00 | 0.00 | 0.00 | 85 | 1007.2 |
| 20260508105231 | 48 | 204 | 0.9 | 1.7 | 0.00 | 0.00 | 0.00 | 85 | 1007.2 |
| 20260508104726 | 48 | 204 | 0.9 | 2.6 | 0.00 | 0.00 | 0.00 | 85 | 1007.2 |
| 20260508104212 | 47 | 245 | 0.9 | 2.6 | 0.00 | 0.00 | 0.00 | 85 | 1007.2 |
| 20260508103713 | 47 | 245 | 0.0 | 1.7 | 0.00 | 0.00 | 0.00 | 85 | 1007.2 |
| 20260508103208 | 47 | 245 | 0.0 | 0.9 | 0.00 | 0.00 | 0.00 | 85 | 1007.3 |
| 20260508102701 | 47 | 245 | 0.0 | 0.9 | 0.00 | 0.00 | 0.00 | 84 | 1007.3 |
| 20260508102157 | 47 | 245 | 0.0 | 0.0 | 0.00 | 0.00 | 0.00 | 84 | 1007.3 |
| 20260508101642 | 47 | 245 | 0.0 | 0.0 | 0.00 | 0.00 | 0.00 | 84 | 1007.5 |
| 20260508101413 | 47 | 245 | 0.0 | 0.0 | 0.00 | 0.00 | 0.00 | 84 | 1007.5 |
| 20260508101118 | 47 | 245 | 0.0 | 0.0 | 0.00 | 0.00 | 0.00 | 83 | 1007.5 |
| 20260508100131 | 48 | 245 | 0.0 | 0.0 | 0.00 | 0.00 | 0.00 | 83 | 1007.2 |
| 20260508095626 | 48 | 245 | 0.0 | 0.9 | 0.00 | 0.00 | 0.00 | 83 | 1007.2 |
| 20260508095116 | 48 | 245 | 0.0 | 0.9 | 0.00 | 0.00 | 0.00 | 83 | 1007.2 |
| 20260508094614 | 48 | 245 | 0.0 | 0.9 | 0.00 | 0.00 | 0.00 | 83 | 1007.6 |
| 20260508094101 | 48 | 245 | 0.9 | 1.7 | 0.00 | 0.00 | 0.00 | 83 | 1007.6 |
| 20260508093600 | 48 | 245 | 0.9 | 1.7 | 0.00 | 0.00 | 0.00 | 83 | 1007.6 |
| 20260508093057 | 48 | 223 | 0.9 | 1.7 | 0.00 | 0.00 | 0.00 | 83 | 1007.5 |
| 20260508092545 | 48 | 223 | 0.0 | 1.7 | 0.00 | 0.00 | 0.00 | 83 | 1007.5 |
| 20260508092044 | 48 | 223 | 0.9 | 2.6 | 0.00 | 0.00 | 0.00 | 83 | 1007.5 |
| 20260508091534 | 48 | 223 | 1.7 | 2.6 | 0.00 | 0.00 | 0.00 | 83 | 1007.5 |
| 20260508091031 | 48 | 223 | 1.7 | 2.6 | 0.00 | 0.00 | 0.00 | 83 | 1007.5 |
| 20260508090525 | 48 | 223 | 0.9 | 1.7 | 0.00 | 0.00 | 0.00 | 83 | 1007.5 |
| 20260508090019 | 48 | 223 | 0.0 | 1.7 | 0.00 | 0.00 | 0.00 | 83 | 1007.6 |
| 20260508085734 | 48 | 223 | 0.9 | 1.7 | 0.00 | 0.00 | 0.00 | 83 | 1007.6 |
| 20260508084959 | 48 | 223 | 0.9 | 1.7 | 0.00 | 0.00 | 0.00 | 82 | 1007.6 |
| 20260508084502 | 48 | 223 | 0.9 | 2.6 | 0.00 | 0.00 | 0.00 | 82 | 1007.6 |
| 20260508083956 | 48 | 223 | 0.9 | 3.5 | 0.00 | 0.00 | 0.00 | 82 | 1007.6 |
| 20260508083445 | 48 | 226 | 1.7 | 4.3 | 0.00 | 0.00 | 0.00 | 81 | 1007.6 |
| 20260508082944 | 49 | 225 | 2.6 | 4.3 | 0.00 | 0.00 | 0.00 | 81 | 1007.6 |
| 20260508082437 | 49 | 204 | 2.6 | 5.2 | 0.00 | 0.00 | 0.00 | 81 | 1007.6 |
| 20260508081931 | 49 | 236 | 3.5 | 5.2 | 0.00 | 0.00 | 0.00 | 80 | 1007.6 |
| 20260508081418 | 49 | 229 | 2.6 | 5.2 | 0.00 | 0.00 | 0.00 | 80 | 1007.6 |
| 20260508080915 | 49 | 229 | 2.6 | 5.2 | 0.00 | 0.00 | 0.00 | 80 | 1007.6 |
| 20260508080413 | 50 | 215 | 2.6 | 5.2 | 0.00 | 0.00 | 0.00 | 80 | 1007.7 |
| 20260508075912 | 50 | 250 | 2.6 | 5.2 | 0.00 | 0.00 | 0.00 | 80 | 1007.7 |
| 20260508075634 | 49 | 228 | 2.6 | 7.0 | 0.00 | 0.00 | 0.00 | 81 | 1007.7 |
| 20260508074911 | 49 | 240 | 2.6 | 7.0 | 0.00 | 0.00 | 0.00 | 81 | 1007.8 |
| 20260508074412 | 49 | 234 | 2.6 | 4.3 | 0.00 | 0.00 | 0.00 | 82 | 1007.8 |
| 20260508073912 | 48 | 207 | 2.6 | 4.3 | 0.00 | 0.00 | 0.00 | 82 | 1007.8 |
| 20260508073412 | 48 | 233 | 2.6 | 5.2 | 0.00 | 0.00 | 0.00 | 82 | 1008.0 |
| 20260508072915 | 48 | 220 | 2.6 | 5.2 | 0.00 | 0.00 | 0.00 | 82 | 1008.0 |
| 20260508072416 | 48 | 217 | 2.6 | 4.3 | 0.00 | 0.00 | 0.00 | 82 | 1008.0 |
| 20260508071909 | 48 | 211 | 2.6 | 4.3 | 0.00 | 0.00 | 0.00 | 83 | 1008.1 |
| 20260508071356 | 48 | 231 | 2.6 | 4.3 | 0.00 | 0.00 | 0.00 | 83 | 1008.1 |
| 20260508070847 | 48 | 216 | 2.6 | 3.5 | 0.00 | 0.00 | 0.00 | 83 | 1008.1 |
| 20260508070340 | 48 | 227 | 2.6 | 3.5 | 0.00 | 0.00 | 0.00 | 83 | 1008.1 |
| 20260508070050 | 47 | 227 | 1.7 | 3.5 | 0.00 | 0.00 | 0.00 | 83 | 1008.1 |
| 20260508065319 | 47 | 223 | 0.9 | 3.5 | 0.00 | 0.00 | 0.00 | 83 | 1008.1 |
| 20260508064821 | 47 | 238 | 0.9 | 4.3 | 0.00 | 0.00 | 0.00 | 82 | 1008.1 |
| 20260508064315 | 48 | 237 | 0.9 | 4.3 | 0.00 | 0.00 | 0.00 | 82 | 1008.1 |
| 20260508063810 | 48 | 245 | 1.7 | 3.5 | 0.00 | 0.00 | 0.00 | 82 | 1008.1 |
| 20260508063302 | 48 | 245 | 1.7 | 3.5 | 0.00 | 0.00 | 0.00 | 82 | 1008.2 |
| 20260508062756 | 48 | 240 | 1.7 | 4.3 | 0.00 | 0.00 | 0.00 | 82 | 1008.2 |
| 20260508062513 | 48 | 238 | 1.7 | 4.3 | 0.00 | 0.00 | 0.00 | 82 | 1008.2 |
| 20260508061741 | 48 | 213 | 1.7 | 5.2 | 0.00 | 0.00 | 0.00 | 82 | 1008.1 |
| 20260508061238 | 48 | 227 | 2.6 | 5.2 | 0.00 | 0.00 | 0.00 | 82 | 1008.1 |
| 20260508060732 | 47 | 233 | 2.6 | 5.2 | 0.00 | 0.00 | 0.00 | 82 | 1008.1 |
| 20260508060445 | 47 | 227 | 1.7 | 3.5 | 0.00 | 0.00 | 0.00 | 82 | 1008.2 |
| 20260508055721 | 47 | 220 | 2.6 | 5.2 | 0.00 | 0.00 | 0.00 | 81 | 1008.2 |
| 20260508055654 | 47 | 198 | 2.6 | 5.2 | 0.00 | 0.00 | 0.00 | 82 | 1008.2 |
| 20260508054708 | 47 | 230 | 2.6 | 3.5 | 0.00 | 0.00 | 0.00 | 81 | 1008.1 |
| 20260508054202 | 48 | 215 | 2.6 | 3.5 | 0.00 | 0.00 | 0.00 | 81 | 1008.1 |
| 20260508053656 | 48 | 216 | 2.6 | 4.3 | 0.00 | 0.00 | 0.00 | 81 | 1008.1 |
| 20260508053151 | 48 | 232 | 2.6 | 5.2 | 0.00 | 0.00 | 0.00 | 81 | 1008.1 |
| 20260508052645 | 48 | 255 | 1.7 | 5.2 | 0.00 | 0.00 | 0.00 | 81 | 1008.1 |
| 20260508052140 | 48 | 240 | 1.7 | 4.3 | 0.00 | 0.00 | 0.00 | 81 | 1008.1 |
| 20260508051629 | 48 | 223 | 0.9 | 2.6 | 0.00 | 0.00 | 0.00 | 81 | 1008.1 |
| 20260508051348 | 48 | 236 | 0.9 | 2.6 | 0.00 | 0.00 | 0.00 | 81 | 1008.1 |
| 20260508050619 | 48 | 238 | 1.7 | 3.5 | 0.00 | 0.00 | 0.00 | 81 | 1008.1 |
| 20260508050116 | 48 | 234 | 1.7 | 3.5 | 0.00 | 0.00 | 0.00 | 80 | 1007.8 |
| 20260508045611 | 48 | 289 | 1.7 | 3.5 | 0.00 | 0.00 | 0.00 | 80 | 1007.8 |
| 20260508045330 | 49 | 245 | 2.6 | 7.0 | 0.00 | 0.00 | 0.00 | 80 | 1007.8 |
| 20260508044559 | 49 | 223 | 3.5 | 7.0 | 0.00 | 0.00 | 0.00 | 80 | 1007.7 |
| 20260508044049 | 49 | 222 | 3.5 | 6.1 | 0.00 | 0.00 | 0.00 | 79 | 1007.7 |
| 20260508043547 | 49 | 223 | 3.5 | 6.1 | 0.00 | 0.00 | 0.00 | 79 | 1007.7 |
| 20260508043041 | 49 | 222 | 3.5 | 6.1 | 0.00 | 0.00 | 0.00 | 79 | 1007.6 |
| 20260508042800 | 49 | 221 | 3.5 | 6.1 | 0.00 | 0.00 | 0.00 | 78 | 1007.6 |
| 20260508042030 | 49 | 245 | 3.5 | 7.0 | 0.00 | 0.00 | 0.00 | 78 | 1007.6 |
| 20260508041523 | 50 | 229 | 3.5 | 7.0 | 0.00 | 0.00 | 0.00 | 78 | 1007.6 |
| 20260508041244 | 50 | 228 | 3.5 | 6.1 | 0.00 | 0.00 | 0.00 | 77 | 1007.6 |
| 20260508040729 | 50 | 217 | 2.6 | 6.1 | 0.00 | 0.00 | 0.00 | 77 | 1007.6 |
| 20260508040227 | 50 | 215 | 2.6 | 6.1 | 0.00 | 0.00 | 0.00 | 77 | 1007.6 |
| 20260508035457 | 50 | 212 | 2.6 | 6.1 | 0.00 | 0.00 | 0.00 | 77 | 1007.6 |
| 20260508034947 | 50 | 223 | 2.6 | 6.1 | 0.00 | 0.00 | 0.00 | 76 | 1007.6 |
| 20260508034446 | 50 | 224 | 2.6 | 7.0 | 0.00 | 0.00 | 0.00 | 76 | 1007.6 |
| 20260508034158 | 50 | 213 | 2.6 | 7.0 | 0.00 | 0.00 | 0.00 | 76 | 1007.6 |
| 20260508033434 | 50 | 215 | 3.5 | 5.2 | 0.00 | 0.00 | 0.00 | 76 | 1007.6 |
| 20260508032928 | 50 | 216 | 3.5 | 6.1 | 0.00 | 0.00 | 0.00 | 76 | 1007.6 |
| 20260508032421 | 51 | 225 | 3.5 | 7.0 | 0.00 | 0.00 | 0.00 | 75 | 1007.6 |
| 20260508031915 | 51 | 210 | 3.5 | 7.0 | 0.00 | 0.00 | 0.00 | 75 | 1007.4 |
| 20260508031405 | 51 | 227 | 3.5 | 7.0 | 0.00 | 0.00 | 0.00 | 74 | 1007.4 |
| 20260508030905 | 51 | 225 | 3.5 | 7.8 | 0.00 | 0.00 | 0.00 | 74 | 1007.4 |
| 20260508030404 | 51 | 232 | 2.6 | 7.8 | 0.00 | 0.00 | 0.00 | 73 | 1007.4 |
| 20260508025904 | 51 | 239 | 1.7 | 4.3 | 0.00 | 0.00 | 0.00 | 72 | 1007.4 |
| 20260508025404 | 52 | 210 | 1.7 | 2.6 | 0.00 | 0.00 | 0.00 | 71 | 1007.4 |
| 20260508024905 | 52 | 198 | 1.7 | 3.5 | 0.00 | 0.00 | 0.00 | 70 | 1007.4 |
| 20260508024405 | 52 | 207 | 1.7 | 3.5 | 0.00 | 0.00 | 0.00 | 70 | 1007.4 |
| 20260508024130 | 52 | 205 | 1.7 | 3.5 | 0.00 | 0.00 | 0.00 | 70 | 1007.4 |
| 20260508023405 | 52 | 192 | 1.7 | 3.5 | 0.00 | 0.00 | 0.00 | 70 | 1007.2 |
| 20260508022905 | 51 | 196 | 1.7 | 3.5 | 0.00 | 0.00 | 0.00 | 71 | 1007.2 |
| 20260508022407 | 51 | 226 | 0.9 | 3.5 | 0.00 | 0.00 | 0.00 | 71 | 1007.2 |
| 20260508021907 | 51 | 223 | 0.0 | 3.5 | 0.00 | 0.00 | 0.00 | 72 | 1007.2 |
| 20260508021401 | 51 | 177 | 0.0 | 0.0 | 0.00 | 0.00 | 0.00 | 72 | 1007.2 |
| 20260508020851 | 51 | 186 | 0.0 | 0.0 | 0.00 | 0.00 | 0.00 | 72 | 1007.2 |
| 20260508020334 | 51 | 186 | 0.0 | 0.0 | 0.00 | 0.00 | 0.00 | 73 | 1007.1 |
| 20260508015823 | 51 | 169 | 0.0 | 0.0 | 0.00 | 0.00 | 0.00 | 73 | 1007.1 |
| 20260508015312 | 51 | 180 | 0.0 | 0.0 | 0.00 | 0.00 | 0.00 | 73 | 1007.1 |
| 20260508014758 | 51 | 153 | 0.0 | 0.0 | 0.00 | 0.00 | 0.00 | 73 | 1006.8 |
| 20260508014514 | 51 | 85 | 0.0 | 0.0 | 0.00 | 0.00 | 0.00 | 73 | 1006.8 |
| 20260508013742 | 51 | 85 | 0.0 | 0.0 | 0.00 | 0.00 | 0.00 | 73 | 1006.8 |
| 20260508013717 | 51 | 85 | 0.0 | 0.0 | 0.00 | 0.00 | 0.00 | 73 | 1006.6 |
| 20260508012736 | 51 | 85 | 0.0 | 0.0 | 0.00 | 0.00 | 0.00 | 73 | 1006.6 |
| 20260508012228 | 52 | 85 | 0.0 | 0.0 | 0.00 | 0.00 | 0.00 | 73 | 1006.6 |
| 20260508011723 | 52 | 27 | 0.0 | 0.0 | 0.00 | 0.00 | 0.00 | 73 | 1006.6 |
| 20260508011213 | 52 | 27 | 0.0 | 0.0 | 0.00 | 0.00 | 0.00 | 73 | 1006.6 |
| 20260508010712 | 53 | 24 | 0.0 | 0.0 | 0.00 | 0.00 | 0.00 | 72 | 1006.6 |
| 20260508010201 | 53 | 13 | 0.0 | 0.0 | 0.00 | 0.00 | 0.00 | 72 | 1006.6 |
| 20260508005659 | 53 | 13 | 0.0 | 0.0 | 0.00 | 0.00 | 0.00 | 71 | 1006.6 |
| 20260508005647 | 54 | 13 | 0.0 | 0.0 | 0.00 | 0.00 | 0.00 | 71 | 1006.6 |
| 20260508004912 | 54 | 13 | 0.0 | 0.0 | 0.00 | 0.00 | 0.00 | 70 | 1006.5 |
| 20260508004142 | 55 | 13 | 0.0 | 0.0 | 0.00 | 0.00 | 0.00 | 69 | 1006.5 |
| 20260508003857 | 55 | 13 | 0.0 | 0.0 | 0.00 | 0.00 | 0.00 | 69 | 1006.5 |
| 20260508003355 | 56 | 13 | 0.0 | 0.0 | 0.00 | 0.00 | 0.00 | 68 | 1006.5 |
| 20260508002623 | 56 | 13 | 0.0 | 0.0 | 0.00 | 0.00 | 0.00 | 68 | 1006.5 |
| 20260508002341 | 56 | 13 | 0.0 | 0.0 | 0.00 | 0.00 | 0.00 | 67 | 1006.5 |
| 20260508001610 | 56 | 13 | 0.0 | 0.0 | 0.00 | 0.00 | 0.00 | 67 | 1006.5 |
| 20260508001101 | 55 | 13 | 0.0 | 0.0 | 0.00 | 0.00 | 0.00 | 68 | 1006.5 |
| 20260508000558 | 55 | 13 | 0.0 | 0.9 | 0.00 | 0.00 | 0.00 | 68 | 1006.5 |
| 20260508000053 | 55 | 13 | 0.0 | 1.7 | 0.00 | 0.00 | 0.00 | 68 | 1006.5 |
| 20260507235546 | 55 | 13 | 0.9 | 3.5 | 0.00 | 0.00 | 0.00 | 68 | 1006.5 |
| 20260507235041 | 55 | 5 | 0.9 | 3.5 | 0.00 | 0.00 | 0.00 | 68 | 1006.5 |
| 20260507234534 | 55 | 342 | 1.7 | 4.3 | 0.00 | 0.00 | 0.00 | 67 | 1006.5 |
| 20260507234251 | 55 | 282 | 1.7 | 4.3 | 0.00 | 0.00 | 0.00 | 67 | 1006.5 |
| 20260507233522 | 55 | 5 | 1.7 | 5.2 | 0.00 | 0.00 | 0.00 | 66 | 1006.5 |
| 20260507233016 | 55 | 54 | 2.6 | 6.1 | 0.00 | 0.00 | 0.00 | 65 | 1006.5 |
| 20260507232510 | 56 | 34 | 3.5 | 7.0 | 0.00 | 0.00 | 0.00 | 63 | 1006.5 |
| 20260507232004 | 56 | 36 | 3.5 | 7.0 | 0.00 | 0.00 | 0.00 | 62 | 1006.5 |
| 20260507231458 | 58 | 0 | 3.5 | 8.7 | 0.00 | 0.00 | 0.00 | 58 | 1006.3 |
| 20260507230948 | 60 | 34 | 5.2 | 15.6 | 0.00 | 0.00 | 0.00 | 56 | 1006.3 |
| 20260507230713 | 60 | 221 | 6.1 | 15.6 | 0.00 | 0.00 | 0.00 | 55 | 1006.3 |
| 20260507225939 | 60 | 246 | 5.2 | 14.8 | 0.00 | 0.00 | 0.00 | 58 | 1006.3 |
| 20260507225428 | 60 | 186 | 6.1 | 14.8 | 0.00 | 0.00 | 0.00 | 58 | 1006.3 |
| 20260507224927 | 59 | 234 | 6.1 | 15.6 | 0.00 | 0.00 | 0.00 | 58 | 1006.6 |
| 20260507224421 | 59 | 232 | 7.0 | 15.6 | 0.00 | 0.00 | 0.00 | 57 | 1006.6 |
| 20260507223919 | 59 | 225 | 7.0 | 13.0 | 0.00 | 0.00 | 0.00 | 57 | 1006.6 |
| 20260507223640 | 59 | 229 | 6.1 | 13.0 | 0.00 | 0.00 | 0.00 | 56 | 1006.7 |
| 20260507222920 | 60 | 197 | 6.1 | 12.2 | 0.00 | 0.00 | 0.00 | 57 | 1006.7 |
| 20260507222420 | 59 | 255 | 7.0 | 12.2 | 0.00 | 0.00 | 0.00 | 58 | 1006.7 |
| 20260507221920 | 59 | 225 | 7.0 | 12.2 | 0.00 | 0.00 | 0.00 | 57 | 1006.8 |
| 20260507221419 | 59 | 211 | 6.1 | 12.2 | 0.00 | 0.00 | 0.00 | 59 | 1006.8 |
| 20260507220919 | 58 | 221 | 6.1 | 12.2 | 0.00 | 0.00 | 0.00 | 59 | 1006.8 |
| 20260507220419 | 58 | 213 | 6.1 | 12.2 | 0.00 | 0.00 | 0.00 | 60 | 1007.1 |
| 20260507215920 | 58 | 220 | 7.0 | 13.9 | 0.00 | 0.00 | 0.00 | 60 | 1007.1 |
| 20260507215419 | 57 | 231 | 7.8 | 13.9 | 0.00 | 0.00 | 0.00 | 61 | 1007.1 |
| 20260507214914 | 57 | 219 | 7.8 | 13.9 | 0.00 | 0.00 | 0.00 | 61 | 1007.1 |
| 20260507214402 | 57 | 227 | 7.8 | 17.4 | 0.00 | 0.00 | 0.00 | 61 | 1007.1 |
| 20260507213849 | 57 | 220 | 7.8 | 17.4 | 0.00 | 0.00 | 0.00 | 60 | 1007.1 |
| 20260507213337 | 57 | 215 | 8.7 | 20.0 | 0.00 | 0.00 | 0.00 | 60 | 1007.2 |
| 20260507212831 | 57 | 275 | 8.7 | 20.0 | 0.00 | 0.00 | 0.00 | 62 | 1007.2 |
| 20260507212546 | 56 | 220 | 8.7 | 18.2 | 0.00 | 0.00 | 0.00 | 61 | 1007.2 |
| 20260507211819 | 56 | 227 | 9.6 | 18.2 | 0.00 | 0.00 | 0.00 | 62 | 1007.1 |
| 20260507211538 | 56 | 248 | 9.6 | 18.2 | 0.00 | 0.00 | 0.00 | 61 | 1007.1 |
| 20260507210807 | 57 | 248 | 8.7 | 18.2 | 0.00 | 0.00 | 0.00 | 61 | 1007.1 |
| 20260507210301 | 57 | 204 | 8.7 | 16.5 | 0.00 | 0.00 | 0.00 | 61 | 1007.2 |
| 20260507205755 | 57 | 235 | 7.8 | 18.2 | 0.00 | 0.00 | 0.00 | 61 | 1007.2 |
| 20260507205245 | 57 | 214 | 8.7 | 18.2 | 0.00 | 0.00 | 0.00 | 62 | 1007.2 |
| 20260507204743 | 56 | 234 | 7.8 | 15.6 | 0.00 | 0.00 | 0.00 | 62 | 1007.6 |
| 20260507204459 | 57 | 231 | 7.0 | 13.9 | 0.00 | 0.00 | 0.00 | 61 | 1007.6 |
| 20260507203817 | 56 | 177 | 7.0 | 13.9 | 0.00 | 0.00 | 0.00 | 62 | 1007.6 |
| 20260507202715 | 55 | 239 | 7.8 | 16.5 | 0.00 | 0.00 | 0.00 | 64 | 1008.1 |
| 20260507202213 | 54 | 213 | 7.0 | 16.5 | 0.00 | 0.00 | 0.00 | 65 | 1008.1 |
| 20260507201708 | 54 | 240 | 7.0 | 16.5 | 0.00 | 0.00 | 0.00 | 65 | 1008.2 |
| 20260507201201 | 54 | 238 | 7.8 | 18.2 | 0.00 | 0.00 | 0.00 | 66 | 1008.2 |
| 20260507200656 | 54 | 237 | 8.7 | 18.2 | 0.00 | 0.00 | 0.00 | 65 | 1008.2 |
| 20260507200145 | 54 | 241 | 7.8 | 17.4 | 0.00 | 0.00 | 0.00 | 65 | 1008.7 |
| 20260507195914 | 53 | 217 | 7.0 | 13.9 | 0.00 | 0.00 | 0.00 | 66 | 1008.7 |
| 20260507195137 | 53 | 268 | 5.2 | 13.9 | 0.00 | 0.00 | 0.00 | 67 | 1008.7 |
| 20260507194632 | 52 | 221 | 6.1 | 13.9 | 0.00 | 0.00 | 0.00 | 70 | 1009.1 |
| 20260507194125 | 51 | 286 | 7.8 | 17.4 | 0.00 | 0.00 | 0.00 | 71 | 1009.1 |
| 20260507193620 | 51 | 205 | 8.7 | 17.4 | 0.00 | 0.00 | 0.00 | 71 | 1009.1 |
| 20260507193113 | 52 | 245 | 8.7 | 19.1 | 0.00 | 0.00 | 0.00 | 68 | 1009.2 |
| 20260507192832 | 52 | 233 | 8.7 | 19.1 | 0.00 | 0.00 | 0.00 | 65 | 1009.2 |
| 20260507192557 | 53 | 171 | 9.6 | 20.9 | 0.00 | 0.00 | 0.00 | 63 | 1009.2 |
| 20260507191555 | 53 | 259 | 8.7 | 20.9 | 0.00 | 0.00 | 0.00 | 62 | 1009.3 |
| 20260507191049 | 53 | 242 | 8.7 | 18.2 | 0.00 | 0.00 | 0.00 | 62 | 1009.3 |
| 20260507190543 | 53 | 217 | 9.6 | 21.7 | 0.00 | 0.00 | 0.00 | 61 | 1009.3 |
| 20260507190033 | 54 | 246 | 9.6 | 21.7 | 0.00 | 0.00 | 0.00 | 60 | 1009.2 |
| 20260507185757 | 54 | 267 | 11.3 | 19.1 | 0.00 | 0.00 | 0.00 | 61 | 1009.2 |
| 20260507185242 | 54 | 229 | 11.3 | 23.5 | 0.00 | 0.00 | 0.00 | 60 | 1009.2 |
| 20260507185006 | 54 | 205 | 10.4 | 23.5 | 0.00 | 0.00 | 0.00 | 57 | 1009.0 |
| 20260507184014 | 56 | 215 | 9.6 | 22.6 | 0.00 | 0.00 | 0.00 | 56 | 1009.0 |
| 20260507183515 | 57 | 203 | 8.7 | 19.1 | 0.00 | 0.00 | 0.00 | 54 | 1009.0 |
| 20260507183014 | 56 | 240 | 7.8 | 19.1 | 0.00 | 0.00 | 0.00 | 51 | 1009.0 |
| 20260507182515 | 56 | 259 | 7.8 | 19.1 | 0.00 | 0.00 | 0.00 | 49 | 1009.0 |
| 20260507182015 | 56 | 192 | 7.8 | 19.1 | 0.00 | 0.00 | 0.00 | 47 | 1009.0 |
| 20260507181743 | 56 | 218 | 7.0 | 20.0 | 0.00 | 0.00 | 0.00 | 49 | 1009.3 |
| 20260507181014 | 56 | 243 | 7.0 | 20.0 | 0.00 | 0.00 | 0.00 | 48 | 1009.3 |
| 20260507180515 | 56 | 238 | 7.0 | 13.9 | 0.00 | 0.00 | 0.00 | 48 | 1009.3 |
| 20260507180015 | 56 | 235 | 7.8 | 26.1 | 0.00 | 0.00 | 0.00 | 48 | 1009.5 |
| 20260507175742 | 56 | 246 | 6.1 | 26.1 | 0.00 | 0.00 | 0.00 | 48 | 1009.5 |
| 20260507175018 | 56 | 235 | 5.2 | 17.4 | 0.00 | 0.00 | 0.00 | 47 | 1009.5 |
| 20260507174513 | 56 | 229 | 6.1 | 14.8 | 0.00 | 0.00 | 0.00 | 46 | 1009.5 |
| 20260507173959 | 56 | 152 | 6.1 | 14.8 | 0.00 | 0.00 | 0.00 | 46 | 1009.5 |
| 20260507173447 | 56 | 228 | 5.2 | 14.8 | 0.00 | 0.00 | 0.00 | 45 | 1009.7 |
| 20260507172935 | 57 | 247 | 5.2 | 13.9 | 0.00 | 0.00 | 0.00 | 45 | 1009.7 |
| 20260507172423 | 57 | 263 | 5.2 | 13.9 | 0.00 | 0.00 | 0.00 | 44 | 1009.7 |
| 20260507171917 | 57 | 240 | 4.3 | 7.8 | 0.00 | 0.00 | 0.00 | 46 | 1010.1 |
| 20260507171411 | 56 | 290 | 4.3 | 10.4 | 0.00 | 0.00 | 0.00 | 45 | 1010.1 |
| 20260507170905 | 56 | 287 | 5.2 | 12.2 | 0.00 | 0.00 | 0.00 | 44 | 1010.1 |
| 20260507170626 | 57 | 253 | 5.2 | 12.2 | 0.00 | 0.00 | 0.00 | 46 | 1010.2 |
| 20260507170117 | 56 | 240 | 5.2 | 10.4 | 0.00 | 0.00 | 0.00 | 46 | 1010.2 |
| 20260507165610 | 56 | 207 | 5.2 | 11.3 | 0.00 | 0.00 | 0.00 | 46 | 1010.2 |
| 20260507164841 | 56 | 250 | 4.3 | 11.3 | 0.00 | 0.00 | 0.00 | 47 | 1010.3 |
| 20260507164335 | 56 | 240 | 4.3 | 8.7 | 0.00 | 0.00 | 0.00 | 45 | 1010.3 |
| 20260507163829 | 55 | 227 | 4.3 | 10.4 | 0.00 | 0.00 | 0.00 | 46 | 1010.3 |
| 20260507163323 | 55 | 298 | 5.2 | 10.4 | 0.00 | 0.00 | 0.00 | 47 | 1010.8 |
| 20260507162812 | 55 | 234 | 6.1 | 10.4 | 0.00 | 0.00 | 0.00 | 46 | 1010.8 |
| 20260507162311 | 55 | 239 | 5.2 | 10.4 | 0.00 | 0.00 | 0.00 | 48 | 1010.8 |
| 20260507161804 | 55 | 241 | 4.3 | 10.4 | 0.00 | 0.00 | 0.00 | 49 | 1011.0 |
| 20260507161259 | 55 | 308 | 4.3 | 8.7 | 0.00 | 0.00 | 0.00 | 49 | 1011.0 |
| 20260507160753 | 55 | 222 | 4.3 | 13.0 | 0.00 | 0.00 | 0.00 | 48 | 1011.0 |
| 20260507160243 | 54 | 212 | 3.5 | 11.3 | 0.00 | 0.00 | 0.00 | 50 | 1011.1 |
| 20260507155741 | 54 | 190 | 3.5 | 10.4 | 0.00 | 0.00 | 0.00 | 51 | 1011.1 |
| 20260507155235 | 54 | 224 | 5.2 | 11.3 | 0.00 | 0.00 | 0.00 | 51 | 1011.1 |
| 20260507154729 | 54 | 184 | 5.2 | 11.3 | 0.00 | 0.00 | 0.00 | 49 | 1011.3 |
| 20260507154316 | 53 | 196 | 4.3 | 11.3 | 0.00 | 0.00 | 0.00 | 49 | 1011.3 |
| 20260507153211 | 53 | 234 | 3.5 | 9.6 | 0.00 | 0.00 | 0.00 | 49 | 1011.4 |
| 20260507152700 | 53 | 244 | 4.3 | 9.6 | 0.00 | 0.00 | 0.00 | 50 | 1011.4 |
| 20260507152158 | 52 | 225 | 4.3 | 9.6 | 0.00 | 0.00 | 0.00 | 50 | 1011.4 |
| 20260507151653 | 52 | 247 | 4.3 | 7.8 | 0.00 | 0.00 | 0.00 | 50 | 1011.6 |
| 20260507151147 | 52 | 180 | 4.3 | 8.7 | 0.00 | 0.00 | 0.00 | 51 | 1011.6 |
| 20260507150640 | 51 | 240 | 4.3 | 8.7 | 0.00 | 0.00 | 0.00 | 51 | 1011.6 |
| 20260507150130 | 51 | 261 | 4.3 | 8.7 | 0.00 | 0.00 | 0.00 | 50 | 1011.7 |
| 20260507145628 | 51 | 241 | 4.3 | 8.7 | 0.00 | 0.00 | 0.00 | 53 | 1011.7 |
| 20260507145342 | 51 | 185 | 4.3 | 8.7 | 0.00 | 0.00 | 0.00 | 52 | 1011.7 |
| 20260507144616 | 50 | 263 | 4.3 | 8.7 | 0.00 | 0.00 | 0.00 | 54 | 1011.9 |
| 20260507144111 | 50 | 212 | 3.5 | 7.8 | 0.00 | 0.00 | 0.00 | 52 | 1011.9 |
| 20260507143605 | 50 | 208 | 3.5 | 7.0 | 0.00 | 0.00 | 0.00 | 56 | 1011.9 |